When you browse on this site, cookies collect data to enhance your experience and personalize the content and advertising you see.
Visit our Privacy Policy to learn more. By continuing to use the site, you agree to this use of cookies and data.
  • en France
  • Liste des pays
  • À 7 jours
  • Température de l'eau
  • Carte météo
  • Widgets météo
  • user-avatar
    Se connecter

    Météo par heure à Wilbraham

    Ce jour, 4 Juin, Jeudi

    Heure Température Précipitation Vent Pression Humidité
    00:00 +16°C° 0 mm 1 m/s 741 mmHg 93%
    01:00 +16°C° 0 mm 1 m/s 741 mmHg 94%
    02:00 +16°C° 0 mm 1 m/s 742 mmHg 95%
    03:00 +15°C° 0 mm 1 m/s 742 mmHg 95%
    04:00 +15°C° 0 mm 1 m/s 742 mmHg 96%
    05:00 +17°C° 0 mm 2 m/s 743 mmHg 89%
    06:00 +18°C° 0 mm 2 m/s 744 mmHg 83%
    07:00 +20°C° 0 mm 3 m/s 744 mmHg 77%
    08:00 +22°C° 0 mm 3 m/s 745 mmHg 67%
    09:00 +25°C° 0 mm 3 m/s 745 mmHg 57%
    10:00 +26°C° 0 mm 3 m/s 745 mmHg 47%
    11:00 +27°C° 0 mm 3 m/s 745 mmHg 44%
    12:00 +28°C° 0 mm 3 m/s 746 mmHg 41%
    13:00 +29°C° 0 mm 3 m/s 746 mmHg 38%
    14:00 +29°C° 0 mm 3 m/s 746 mmHg 39%
    15:00 +29°C° 0 mm 3 m/s 746 mmHg 40%
    16:00 +29°C° 0 mm 3 m/s 746 mmHg 41%
    17:00 +27°C° 0 mm 2 m/s 746 mmHg 51%
    18:00 +25°C° 0 mm 1 m/s 746 mmHg 60%
    19:00 +23°C° 0 mm 1 m/s 746 mmHg 69%
    20:00 +22°C° 0 mm 1 m/s 747 mmHg 71%
    21:00 +21°C° 0 mm 1 m/s 747 mmHg 72%
    22:00 +20°C° 0 mm 1 m/s 747 mmHg 73%
    23:00 +19°C° 0 mm 1 m/s 747 mmHg 78%

    Demain, 5 Juin, Vendredi

    Heure Température Précipitation Vent Pression Humidité
    00:00 +19°C° 0 mm 1 m/s 747 mmHg 82%
    01:00 +17°C° 0 mm 2 m/s 747 mmHg 86%
    02:00 +19°C° 0 mm 1 m/s 747 mmHg 85%
    03:00 +19°C° 0 mm 1 m/s 747 mmHg 84%
    04:00 +18°C° 0 mm 0 m/s 747 mmHg 83%
    05:00 +21°C° 0 mm 1 m/s 747 mmHg 82%
    06:00 +22°C° 0 mm 1 m/s 747 mmHg 80%
    07:00 +23°C° 0 mm 2 m/s 748 mmHg 78%
    08:00 +25°C° 0 mm 2 m/s 748 mmHg 72%
    09:00 +26°C° 0 mm 2 m/s 747 mmHg 67%
    10:00 +28°C° 0 mm 3 m/s 747 mmHg 61%
    11:00 +28°C° 0.5 mm 3 m/s 747 mmHg 65%
    12:00 +28°C° 0.5 mm 3 m/s 746 mmHg 70%
    13:00 +29°C° 0.5 mm 3 m/s 746 mmHg 74%
    14:00 +29°C° 0.4 mm 3 m/s 746 mmHg 73%
    15:00 +29°C° 0.4 mm 4 m/s 746 mmHg 72%
    16:00 +29°C° 0.4 mm 4 m/s 745 mmHg 70%
    17:00 +27°C° 0.1 mm 4 m/s 745 mmHg 74%
    18:00 +25°C° 0.1 mm 3 m/s 745 mmHg 78%
    19:00 +24°C° 0.1 mm 3 m/s 745 mmHg 82%
    20:00 +22°C° 0.1 mm 3 m/s 745 mmHg 86%
    21:00 +21°C° 0.1 mm 3 m/s 745 mmHg 90%
    22:00 +20°C° 0.1 mm 3 m/s 745 mmHg 94%
    23:00 +20°C° 0 mm 3 m/s 745 mmHg 95%

    Après-demain, 6 Juin, Samedi

    Heure Température Précipitation Vent Pression Humidité
    00:00 +20°C° 0 mm 3 m/s 744 mmHg 95%
    01:00 +20°C° 0 mm 3 m/s 744 mmHg 96%
    02:00 +20°C° 0 mm 3 m/s 743 mmHg 96%
    03:00 +20°C° 0 mm 3 m/s 743 mmHg 96%
    04:00 +20°C° 0 mm 3 m/s 743 mmHg 96%
    05:00 +21°C° 0 mm 3 m/s 743 mmHg 93%
    06:00 +22°C° 0 mm 3 m/s 743 mmHg 91%
    07:00 +24°C° 0 mm 3 m/s 743 mmHg 88%
    08:00 +25°C° 0.3 mm 3 m/s 743 mmHg 86%
    09:00 +26°C° 0.3 mm 3 m/s 742 mmHg 83%
    10:00 +27°C° 0.3 mm 3 m/s 742 mmHg 80%
    11:00 +28°C° 1.1 mm 3 m/s 742 mmHg 75%
    12:00 +28°C° 1.1 mm 4 m/s 742 mmHg 69%
    13:00 +28°C° 1.1 mm 4 m/s 741 mmHg 64%
    14:00 +28°C° 0 mm 4 m/s 741 mmHg 54%
    15:00 +28°C° 0 mm 5 m/s 741 mmHg 44%
    16:00 +28°C° 0 mm 5 m/s 741 mmHg 34%
    17:00 +26°C° 0 mm 5 m/s 741 mmHg 42%
    18:00 +23°C° 0 mm 4 m/s 741 mmHg 49%
    19:00 +20°C° 0 mm 3 m/s 742 mmHg 57%
    20:00 +19°C° 0 mm 3 m/s 742 mmHg 59%
    21:00 +18°C° 0 mm 3 m/s 742 mmHg 61%
    22:00 +16°C° 0 mm 2 m/s 743 mmHg 63%
    23:00 +16°C° 0 mm 2 m/s 743 mmHg 69%

    7 Juin, Dimanche

    Heure Température Précipitation Vent Pression Humidité
    00:00 +15°C° 0 mm 2 m/s 743 mmHg 75%
    01:00 +14°C° 0 mm 2 m/s 743 mmHg 81%
    02:00 +13°C° 0 mm 2 m/s 743 mmHg 83%
    03:00 +12°C° 0 mm 2 m/s 744 mmHg 86%
    04:00 +12°C° 0 mm 2 m/s 744 mmHg 88%
    05:00 +12°C° 0 mm 3 m/s 744 mmHg 78%
    06:00 +14°C° 0 mm 3 m/s 745 mmHg 68%
    07:00 +15°C° 0 mm 4 m/s 745 mmHg 58%
    08:00 +18°C° 0 mm 4 m/s 745 mmHg 52%
    09:00 +19°C° 0 mm 4 m/s 745 mmHg 46%
    10:00 +21°C° 0 mm 4 m/s 745 mmHg 40%
    11:00 +22°C° 0 mm 4 m/s 745 mmHg 38%
    12:00 +22°C° 0 mm 5 m/s 745 mmHg 37%
    13:00 +23°C° 0 mm 5 m/s 745 mmHg 35%
    14:00 +23°C° 0 mm 5 m/s 745 mmHg 35%
    15:00 +22°C° 0 mm 5 m/s 745 mmHg 36%
    16:00 +22°C° 0 mm 4 m/s 746 mmHg 36%
    17:00 +21°C° 0 mm 4 m/s 746 mmHg 41%
    18:00 +19°C° 0 mm 3 m/s 747 mmHg 46%
    19:00 +17°C° 0 mm 3 m/s 747 mmHg 52%
    20:00 +16°C° 0 mm 2 m/s 748 mmHg 55%
    21:00 +14°C° 0 mm 2 m/s 749 mmHg 59%
    22:00 +13°C° 0 mm 2 m/s 749 mmHg 63%
    23:00 +12°C° 0 mm 2 m/s 749 mmHg 66%

    8 Juin, Lundi

    Heure Température Précipitation Vent Pression Humidité
    00:00 +10°C° 0 mm 2 m/s 750 mmHg 69%
    01:00 +9°C° 0 mm 2 m/s 750 mmHg 73%
    02:00 +9°C° 0 mm 2 m/s 751 mmHg 73%
    03:00 +9°C° 0 mm 1 m/s 751 mmHg 74%
    04:00 +9°C° 0 mm 1 m/s 752 mmHg 75%
    05:00 +10°C° 0 mm 2 m/s 752 mmHg 68%
    06:00 +13°C° 0 mm 2 m/s 752 mmHg 61%
    07:00 +15°C° 0 mm 2 m/s 753 mmHg 54%
    08:00 +17°C° 0 mm 2 m/s 753 mmHg 48%
    09:00 +18°C° 0 mm 3 m/s 753 mmHg 42%
    10:00 +20°C° 0 mm 3 m/s 753 mmHg 36%
    11:00 +21°C° 0 mm 3 m/s 752 mmHg 33%
    12:00 +24°C° 0 mm 3 m/s 752 mmHg 29%
    13:00 +25°C° 0 mm 3 m/s 752 mmHg 25%
    14:00 +25°C° 0 mm 3 m/s 752 mmHg 26%
    15:00 +25°C° 0 mm 3 m/s 751 mmHg 26%
    16:00 +25°C° 0 mm 3 m/s 751 mmHg 27%
    17:00 +21°C° 0 mm 3 m/s 751 mmHg 36%
    18:00 +19°C° 0 mm 2 m/s 751 mmHg 45%
    19:00 +16°C° 0 mm 1 m/s 751 mmHg 54%
    20:00 +15°C° 0 mm 1 m/s 751 mmHg 54%
    21:00 +14°C° 0 mm 1 m/s 752 mmHg 54%
    22:00 +12°C° 0 mm 1 m/s 752 mmHg 55%
    23:00 +12°C° 0 mm 1 m/s 752 mmHg 57%

    9 Juin, Mardi

    Heure Température Précipitation Vent Pression Humidité
    00:00 +10°C° 0 mm 0 m/s 752 mmHg 59%
    01:00 +10°C° 0 mm 0 m/s 751 mmHg 61%
    02:00 +9°C° 0 mm 0 m/s 751 mmHg 64%
    03:00 +9°C° 0 mm 0 m/s 751 mmHg 67%
    04:00 +9°C° 0 mm 0 m/s 751 mmHg 70%
    05:00 +11°C° 0 mm 0 m/s 751 mmHg 66%
    06:00 +14°C° 0 mm 0 m/s 751 mmHg 62%
    07:00 +16°C° 0 mm 0 m/s 751 mmHg 58%
    08:00 +19°C° 0 mm 0 m/s 751 mmHg 50%
    09:00 +23°C° 0 mm 1 m/s 751 mmHg 42%
    10:00 +25°C° 0 mm 1 m/s 751 mmHg 34%
    11:00 +26°C° 0 mm 1 m/s 750 mmHg 32%
    12:00 +26°C° 0 mm 2 m/s 750 mmHg 30%
    13:00 +27°C° 0 mm 2 m/s 749 mmHg 28%
    14:00 +27°C° 0 mm 2 m/s 749 mmHg 28%
    15:00 +27°C° 0 mm 2 m/s 749 mmHg 28%
    16:00 +27°C° 0 mm 3 m/s 748 mmHg 27%
    17:00 +24°C° 0 mm 2 m/s 748 mmHg 38%
    18:00 +22°C° 0 mm 1 m/s 748 mmHg 48%
    19:00 +19°C° 0 mm 1 m/s 748 mmHg 59%
    20:00 +18°C° 0 mm 1 m/s 748 mmHg 60%
    21:00 +16°C° 0 mm 1 m/s 748 mmHg 60%
    22:00 +15°C° 0 mm 1 m/s 748 mmHg 61%
    23:00 +15°C° 0 mm 1 m/s 748 mmHg 64%
    Voir plus